Simultaneous Nadir Overpasses (SNOs) Predictions

Prediction of SNOs between AURA and NPP Satellite Orbit:

Table of predicted SNOs for the next 14.0 days since TLE Epoch: 10/16/2015
Index Date (AURA) Time (AURA) Lat,Lon (AURA) SZA (AURA ) Date (NPP) Time (NPP) Lat,Lon (NPP) SZA (NPP ) Distance(km) Time Diff (sec)
1 10/18/2015 17:29:55 78.92, 170.61 102.04 10/18/2015 17:29:21 78.91, 170.57 102.07 0.90 34
2 10/18/2015 18:19:13 -79.28, -19.52 78.43 10/18/2015 18:19:56 -79.29, -19.47 78.47 1.16 43
3 10/21/2015 09:46:23 78.97, -73.19 102.89 10/21/2015 09:46:13 78.97, -73.29 102.92 2.23 10
4 10/21/2015 10:35:40 -79.38, 96.97 77.63 10/21/2015 10:36:47 -79.38, 96.98 77.68 0.07 67
5 10/24/2015 01:13:29 -78.86,-125.61 76.07 10/24/2015 01:12:25 -78.87,-125.50 76.05 2.57 64
6 10/24/2015 02:02:48 79.13, 43.65 103.59 10/24/2015 02:03:02 79.13, 43.58 103.60 1.71 14
7 10/26/2015 17:29:57 -78.89, -9.57 75.22 10/26/2015 17:29:18 -78.89, -9.63 75.18 1.26 39
8 10/26/2015 18:19:13 79.28, 160.43 104.30 10/26/2015 18:19:51 79.28, 160.46 104.27 0.72 38
9 10/29/2015 09:46:18 -79.14, 107.82 74.67 10/29/2015 09:46:03 -79.15, 107.96 74.68 3.01 15




NCC Satellite Simultaneous Nadir Overpasses (SNOs) Prediction Service
